| time (UTC) | temp C | wind direction | speed KPH | gust KPH | rain 1hr cm | rain 24hr cm | rain mn cm | humidity % | barometer mb |
| 20260503231501 | 18 | 257 | 6.4 | 11.3 | 0.00 | 0.00 | 0.15 | 50 | 1008.8 |
| 20260503231002 | 18 | 201 | 6.4 | 14.5 | 0.00 | 0.00 | 0.15 | 50 | 1008.5 |
| 20260503230502 | 18 | 199 | 6.4 | 17.7 | 0.00 | 0.00 | 0.15 | 51 | 1008.4 |
| 20260503230001 | 18 | 271 | 6.4 | 19.3 | 0.00 | 0.00 | 0.15 | 51 | 1008.7 |
| 20260503225502 | 18 | 232 | 11.3 | 19.3 | 0.00 | 0.00 | 0.15 | 53 | 1008.6 |
| 20260503225002 | 17 | 196 | 6.4 | 11.3 | 0.00 | 0.00 | 0.15 | 53 | 1008.6 |
| 20260503224502 | 18 | 230 | 11.3 | 19.3 | 0.00 | 0.00 | 0.15 | 51 | 1008.8 |
| 20260503224002 | 18 | 180 | 9.7 | 17.7 | 0.00 | 0.00 | 0.15 | 51 | 1008.9 |
| 20260503223502 | 18 | 173 | 6.4 | 11.3 | 0.00 | 0.00 | 0.15 | 50 | 1008.8 |
| 20260503223002 | 17 | 279 | 8.0 | 11.3 | 0.00 | 0.00 | 0.15 | 51 | 1009.3 |
| 20260503222502 | 17 | 225 | 8.0 | 11.3 | 0.00 | 0.00 | 0.15 | 52 | 1009.3 |
| 20260503222002 | 17 | 233 | 3.2 | 11.3 | 0.00 | 0.00 | 0.15 | 53 | 1009.2 |
| 20260503221502 | 17 | 191 | 8.0 | 20.9 | 0.00 | 0.00 | 0.15 | 52 | 1009.2 |
| 20260503221002 | 17 | 210 | 9.7 | 16.1 | 0.00 | 0.00 | 0.15 | 53 | 1009.2 |
| 20260503220502 | 17 | 228 | 6.4 | 14.5 | 0.00 | 0.00 | 0.15 | 53 | 1009.3 |
| 20260503220003 | 17 | 187 | 9.7 | 19.3 | 0.00 | 0.00 | 0.15 | 52 | 1009.3 |
| 20260503215501 | 18 | 194 | 8.0 | 20.9 | 0.00 | 0.00 | 0.15 | 51 | 1009.2 |
| 20260503215002 | 17 | 179 | 16.1 | 22.5 | 0.00 | 0.00 | 0.15 | 51 | 1009.4 |
| 20260503214502 | 17 | 267 | 8.0 | 16.1 | 0.00 | 0.00 | 0.15 | 53 | 1009.6 |
| 20260503214002 | 17 | 255 | 8.0 | 16.1 | 0.00 | 0.00 | 0.15 | 53 | 1009.4 |
| 20260503213502 | 17 | 150 | 9.7 | 20.9 | 0.00 | 0.00 | 0.15 | 52 | 1009.5 |
| 20260503213002 | 17 | 230 | 14.5 | 22.5 | 0.00 | 0.00 | 0.15 | 51 | 1009.8 |
| 20260503212502 | 17 | 186 | 11.3 | 19.3 | 0.00 | 0.00 | 0.15 | 51 | 1009.9 |
| 20260503212002 | 17 | 173 | 11.3 | 19.3 | 0.00 | 0.00 | 0.15 | 51 | 1009.8 |
| 20260503211501 | 17 | 218 | 6.4 | 9.7 | 0.00 | 0.00 | 0.15 | 51 | 1010.0 |
| 20260503211002 | 17 | 188 | 9.7 | 11.3 | 0.00 | 0.00 | 0.15 | 51 | 1010.3 |
| 20260503210502 | 17 | 170 | 9.7 | 20.9 | 0.00 | 0.00 | 0.15 | 51 | 1010.4 |
| 20260503210002 | 17 | 183 | 11.3 | 17.7 | 0.00 | 0.00 | 0.15 | 50 | 1010.3 |
| 20260503205502 | 17 | 154 | 9.7 | 17.7 | 0.00 | 0.00 | 0.15 | 50 | 1010.1 |
| 20260503205002 | 17 | 271 | 9.7 | 17.7 | 0.00 | 0.00 | 0.15 | 49 | 1010.3 |
| 20260503204502 | 17 | 194 | 16.1 | 20.9 | 0.00 | 0.00 | 0.15 | 50 | 1010.5 |
| 20260503204002 | 16 | 241 | 6.4 | 16.1 | 0.00 | 0.00 | 0.15 | 51 | 1010.6 |
| 20260503203502 | 16 | 203 | 11.3 | 22.5 | 0.00 | 0.00 | 0.15 | 51 | 1010.5 |
| 20260503203002 | 16 | 183 | 9.7 | 19.3 | 0.00 | 0.00 | 0.15 | 50 | 1010.6 |
| 20260503202502 | 17 | 234 | 9.7 | 24.1 | 0.00 | 0.00 | 0.15 | 49 | 1010.8 |
| 20260503202002 | 18 | 178 | 19.3 | 22.5 | 0.00 | 0.00 | 0.15 | 47 | 1010.9 |
| 20260503201502 | 18 | 190 | 9.7 | 24.1 | 0.00 | 0.00 | 0.15 | 48 | 1010.9 |
| 20260503201001 | 18 | 201 | 9.7 | 20.9 | 0.00 | 0.00 | 0.15 | 50 | 1010.7 |
| 20260503200502 | 17 | 160 | 17.7 | 24.1 | 0.00 | 0.00 | 0.15 | 48 | 1010.7 |
| 20260503200002 | 17 | 174 | 14.5 | 24.1 | 0.00 | 0.00 | 0.15 | 49 | 1011.1 |
| 20260503195502 | 16 | 239 | 16.1 | 20.9 | 0.00 | 0.00 | 0.15 | 50 | 1011.2 |
| 20260503195002 | 17 | 199 | 17.7 | 29.0 | 0.00 | 0.00 | 0.15 | 48 | 1011.1 |
| 20260503194501 | 17 | 191 | 11.3 | 16.1 | 0.00 | 0.00 | 0.15 | 51 | 1011.1 |
| 20260503194002 | 17 | 209 | 8.0 | 22.5 | 0.00 | 0.00 | 0.15 | 50 | 1011.2 |
| 20260503193502 | 17 | 209 | 11.3 | 30.6 | 0.00 | 0.00 | 0.15 | 50 | 1011.3 |
| 20260503193002 | 17 | 227 | 12.9 | 20.9 | 0.00 | 0.00 | 0.15 | 50 | 1011.7 |
| 20260503192501 | 17 | 180 | 8.0 | 22.5 | 0.00 | 0.00 | 0.15 | 51 | 1011.5 |
| 20260503192002 | 16 | 191 | 11.3 | 16.1 | 0.00 | 0.00 | 0.15 | 53 | 1011.7 |
| 20260503191502 | 16 | 173 | 11.3 | 22.5 | 0.00 | 0.00 | 0.15 | 53 | 1011.5 |
| 20260503191002 | 16 | 202 | 8.0 | 20.9 | 0.00 | 0.00 | 0.15 | 54 | 1011.6 |
| 20260503190502 | 16 | 258 | 9.7 | 20.9 | 0.00 | 0.00 | 0.15 | 55 | 1011.9 |
| 20260503190002 | 16 | 195 | 17.7 | 29.0 | 0.00 | 0.00 | 0.15 | 53 | 1012.0 |
| 20260503185502 | 16 | 211 | 12.9 | 19.3 | 0.00 | 0.00 | 0.15 | 59 | 1011.9 |
| 20260503185002 | 15 | 203 | 14.5 | 17.7 | 0.00 | 0.00 | 0.15 | 61 | 1012.2 |
| 20260503184502 | 15 | 212 | 6.4 | 20.9 | 0.00 | 0.00 | 0.15 | 65 | 1012.5 |
| 20260503184002 | 15 | 206 | 6.4 | 19.3 | 0.00 | 0.00 | 0.15 | 67 | 1012.3 |
| 20260503183502 | 15 | 221 | 8.0 | 11.3 | 0.00 | 0.00 | 0.15 | 71 | 1012.2 |
| 20260503183002 | 14 | 173 | 8.0 | 16.1 | 0.00 | 0.00 | 0.15 | 72 | 1012.5 |
| 20260503182502 | 13 | 249 | 4.8 | 11.3 | 0.00 | 0.00 | 0.15 | 75 | 1012.2 |
| 20260503182002 | 13 | 256 | 6.4 | 17.7 | 0.00 | 0.00 | 0.15 | 75 | 1012.8 |
| 20260503181502 | 12 | 195 | 6.4 | 9.7 | 0.00 | 0.00 | 0.15 | 77 | 1013.1 |
| 20260503181002 | 11 | 142 | 4.8 | 9.7 | 0.00 | 0.00 | 0.15 | 78 | 1013.3 |
| 20260503180501 | 10 | 255 | 6.4 | 9.7 | 0.00 | 0.00 | 0.15 | 80 | 1013.3 |
| 20260503180002 | 10 | 217 | 4.8 | 14.5 | 0.00 | 0.00 | 0.15 | 80 | 1013.8 |
| 20260503175502 | 10 | 291 | 4.8 | 8.0 | 0.00 | 0.00 | 0.15 | 81 | 1014.0 |
| 20260503175002 | 10 | 164 | 6.4 | 11.3 | 0.00 | 0.00 | 0.15 | 81 | 1014.2 |
| 20260503174502 | 10 | 273 | 6.4 | 11.3 | 0.00 | 0.00 | 0.15 | 80 | 1014.6 |
| 20260503174002 | 10 | 166 | 6.4 | 16.1 | 0.00 | 0.00 | 0.15 | 81 | 1014.9 |
| 20260503173502 | 10 | 214 | 4.8 | 8.0 | 0.00 | 0.00 | 0.15 | 81 | 1015.2 |
| 20260503173002 | 10 | 248 | 3.2 | 9.7 | 0.00 | 0.00 | 0.15 | 82 | 1015.0 |
| 20260503172502 | 10 | 258 | 4.8 | 14.5 | 0.00 | 0.00 | 0.15 | 82 | 1015.4 |
| 20260503172002 | 10 | 271 | 1.6 | 6.4 | 0.10 | 0.00 | 0.15 | 87 | 1015.2 |
| 20260503171502 | 10 | 280 | 1.6 | 6.4 | 0.10 | 0.00 | 0.15 | 86 | 1015.4 |
| 20260503171002 | 10 | 211 | 3.2 | 4.8 | 0.00 | 0.00 | 0.13 | 86 | 1015.5 |
| 20260503170502 | 10 | 245 | 4.8 | 11.3 | 0.00 | 0.00 | 0.13 | 86 | 1015.3 |
| 20260503151002 | 11 | 244 | 4.8 | 8.0 | 0.00 | 0.00 | 0.00 | 66 | 1016.3 |
| 20260503150502 | 11 | 232 | 8.0 | 17.7 | 0.00 | 0.00 | 0.00 | 65 | 1016.1 |
| 20260503131001 | 9 | 215 | 9.7 | 16.1 | 0.00 | 0.00 | 0.00 | 70 | 1016.9 |
| 20260503130502 | 9 | 205 | 6.4 | 14.5 | 0.00 | 0.00 | 0.00 | 70 | 1017.0 |
| 20260503110502 | 6 | 259 | 4.8 | 9.7 | 0.00 | 0.00 | 0.00 | 73 | 1016.6 |
| 20260503090502 | 5 | 251 | 3.2 | 4.8 | 0.00 | 0.00 | 0.00 | 74 | 1016.9 |
| 20260503081502 | 5 | 244 | 3.2 | 4.8 | 0.00 | 0.00 | 0.00 | 71 | 1017.3 |
| 20260503081002 | 5 | 256 | 3.2 | 6.4 | 0.00 | 0.00 | 0.00 | 71 | 1017.2 |
| 20260503080501 | 5 | 260 | 3.2 | 4.8 | 0.00 | 0.00 | 0.00 | 71 | 1017.1 |
| 20260503072502 | 5 | 245 | 3.2 | 8.0 | 0.00 | 0.00 | 0.00 | 70 | 1017.1 |
| 20260503072002 | 5 | 266 | 3.2 | 6.4 | 0.00 | 0.00 | 0.00 | 70 | 1017.3 |
| 20260503071501 | 5 | 227 | 6.4 | 8.0 | 0.00 | 0.00 | 0.00 | 70 | 1017.3 |
| 20260503071002 | 5 | 267 | 3.2 | 4.8 | 0.00 | 0.00 | 0.00 | 70 | 1017.3 |
| 20260503070502 | 5 | 216 | 4.8 | 4.8 | 0.00 | 0.00 | 0.00 | 70 | 1017.3 |
| 20260503055002 | 6 | 272 | 1.6 | 4.8 | 0.00 | 0.00 | 0.00 | 69 | 1017.9 |
| 20260503054502 | 6 | 220 | 3.2 | 4.8 | 0.00 | 0.00 | 0.00 | 69 | 1018.0 |
| 20260503054002 | 6 | 261 | 3.2 | 6.4 | 0.00 | 0.00 | 0.00 | 68 | 1017.9 |
| 20260503053502 | 6 | 274 | 1.6 | 4.8 | 0.00 | 0.00 | 0.00 | 68 | 1018.0 |
| 20260503053001 | 6 | 264 | 3.2 | 4.8 | 0.00 | 0.00 | 0.00 | 68 | 1018.3 |
| 20260503052502 | 6 | 269 | 3.2 | 6.4 | 0.00 | 0.00 | 0.00 | 69 | 1018.2 |
| 20260503052002 | 6 | 263 | 3.2 | 4.8 | 0.00 | 0.00 | 0.00 | 69 | 1018.1 |
| 20260503051501 | 6 | 274 | 1.6 | 4.8 | 0.00 | 0.00 | 0.00 | 69 | 1018.1 |
| 20260503051002 | 6 | 271 | 1.6 | 4.8 | 0.00 | 0.00 | 0.00 | 69 | 1018.3 |
| 20260503050502 | 6 | 259 | 1.6 | 6.4 | 0.00 | 0.00 | 0.00 | 70 | 1018.3 |
| 20260503050002 | 6 | 257 | 3.2 | 4.8 | 0.00 | 0.00 | 0.00 | 70 | 1018.4 |
| 20260503045502 | 6 | 267 | 3.2 | 3.2 | 0.00 | 0.00 | 0.00 | 71 | 1018.5 |
| 20260503045002 | 6 | 255 | 3.2 | 3.2 | 0.00 | 0.00 | 0.00 | 71 | 1018.3 |
| 20260503044502 | 6 | 262 | 3.2 | 4.8 | 0.00 | 0.00 | 0.00 | 72 | 1018.3 |
| 20260503044001 | 6 | 243 | 3.2 | 4.8 | 0.00 | 0.00 | 0.00 | 71 | 1018.2 |
| 20260503043502 | 6 | 267 | 1.6 | 3.2 | 0.00 | 0.00 | 0.00 | 70 | 1018.4 |
| 20260503043002 | 6 | 265 | 3.2 | 3.2 | 0.00 | 0.00 | 0.00 | 71 | 1018.4 |
| 20260503042501 | 6 | 268 | 1.6 | 3.2 | 0.00 | 0.00 | 0.00 | 70 | 1018.2 |
| 20260503042002 | 6 | 267 | 1.6 | 4.8 | 0.00 | 0.00 | 0.00 | 70 | 1018.5 |
| 20260503041502 | 6 | 276 | 1.6 | 3.2 | 0.00 | 0.00 | 0.00 | 71 | 1018.4 |
| 20260503041002 | 6 | 262 | 1.6 | 3.2 | 0.00 | 0.00 | 0.00 | 71 | 1018.3 |
| 20260503040502 | 6 | 266 | 1.6 | 4.8 | 0.00 | 0.00 | 0.00 | 71 | 1018.3 |
| 20260503040001 | 6 | 262 | 1.6 | 3.2 | 0.00 | 0.00 | 0.00 | 71 | 1018.2 |
| 20260503035502 | 6 | 260 | 3.2 | 4.8 | 0.00 | 0.00 | 0.00 | 70 | 1018.4 |
| 20260503035002 | 6 | 271 | 1.6 | 6.4 | 0.00 | 0.00 | 0.00 | 70 | 1018.4 |
| 20260503034502 | 6 | 263 | 3.2 | 4.8 | 0.00 | 0.00 | 0.00 | 70 | 1018.4 |
| 20260503034002 | 6 | 264 | 1.6 | 3.2 | 0.00 | 0.00 | 0.00 | 70 | 1018.4 |
| 20260503033502 | 6 | 252 | 3.2 | 4.8 | 0.00 | 0.00 | 0.00 | 71 | 1018.2 |
| 20260503033002 | 6 | 264 | 1.6 | 4.8 | 0.00 | 0.00 | 0.00 | 70 | 1018.6 |
| 20260503032501 | 6 | 250 | 3.2 | 4.8 | 0.00 | 0.00 | 0.00 | 70 | 1018.4 |
| 20260503032002 | 6 | 259 | 3.2 | 4.8 | 0.00 | 0.00 | 0.00 | 69 | 1018.3 |
| 20260503031502 | 6 | 264 | 3.2 | 3.2 | 0.00 | 0.00 | 0.00 | 69 | 1018.6 |
| 20260503031001 | 6 | 251 | 1.6 | 4.8 | 0.00 | 0.00 | 0.00 | 68 | 1018.6 |
| 20260503030503 | 7 | 234 | 3.2 | 4.8 | 0.00 | 0.00 | 0.00 | 68 | 1018.4 |
| 20260503030002 | 7 | 270 | 1.6 | 4.8 | 0.00 | 0.00 | 0.00 | 68 | 1018.8 |
| 20260503025502 | 7 | 252 | 1.6 | 4.8 | 0.00 | 0.00 | 0.00 | 67 | 1018.7 |
| 20260503025002 | 7 | 264 | 1.6 | 3.2 | 0.00 | 0.00 | 0.00 | 67 | 1018.6 |
| 20260503024502 | 7 | 222 | 3.2 | 4.8 | 0.00 | 0.00 | 0.00 | 67 | 1018.9 |
| 20260503024002 | 7 | 258 | 3.2 | 4.8 | 0.00 | 0.00 | 0.00 | 67 | 1018.5 |
| 20260503023502 | 7 | 242 | 3.2 | 4.8 | 0.00 | 0.00 | 0.00 | 67 | 1018.4 |
| 20260503023002 | 7 | 217 | 3.2 | 6.4 | 0.00 | 0.00 | 0.00 | 66 | 1018.6 |
| 20260503022502 | 7 | 240 | 4.8 | 4.8 | 0.00 | 0.00 | 0.00 | 66 | 1018.5 |
| 20260503022002 | 7 | 234 | 4.8 | 4.8 | 0.00 | 0.00 | 0.00 | 64 | 1018.5 |
| 20260503021502 | 7 | 259 | 3.2 | 4.8 | 0.00 | 0.00 | 0.00 | 64 | 1018.5 |
| 20260503021001 | 7 | 266 | 1.6 | 4.8 | 0.00 | 0.00 | 0.00 | 63 | 1018.6 |
| 20260503020502 | 7 | 246 | 1.6 | 4.8 | 0.00 | 0.00 | 0.00 | 63 | 1018.6 |
| 20260503020002 | 8 | 259 | 3.2 | 4.8 | 0.00 | 0.00 | 0.00 | 63 | 1018.5 |
| 20260503015502 | 8 | 271 | 1.6 | 3.2 | 0.00 | 0.00 | 0.00 | 62 | 1018.6 |
| 20260503015002 | 8 | 269 | 1.6 | 4.8 | 0.00 | 0.00 | 0.00 | 61 | 1018.4 |
| 20260503014502 | 8 | 273 | 1.6 | 3.2 | 0.00 | 0.00 | 0.00 | 59 | 1018.5 |
| 20260503014002 | 8 | 273 | 0.0 | 0.0 | 0.00 | 0.00 | 0.00 | 58 | 1018.2 |
| 20260503013501 | 8 | 273 | 1.6 | 3.2 | 0.00 | 0.00 | 0.00 | 57 | 1018.2 |
| 20260503013002 | 8 | 274 | 0.0 | 3.2 | 0.00 | 0.00 | 0.00 | 57 | 1018.2 |
| 20260503012502 | 8 | 276 | 1.6 | 3.2 | 0.00 | 0.00 | 0.00 | 57 | 1018.2 |
| 20260503012002 | 8 | 278 | 0.0 | 0.0 | 0.00 | 0.00 | 0.00 | 56 | 1018.1 |
| 20260503011502 | 8 | 278 | 0.0 | 0.0 | 0.00 | 0.00 | 0.00 | 56 | 1018.2 |
| 20260503011002 | 9 | 278 | 0.0 | 0.0 | 0.00 | 0.00 | 0.00 | 55 | 1018.2 |
| 20260503010502 | 9 | 278 | 0.0 | 0.0 | 0.00 | 0.00 | 0.00 | 53 | 1018.3 |
| 20260503010002 | 10 | 278 | 0.0 | 0.0 | 0.00 | 0.00 | 0.00 | 52 | 1018.1 |
| 20260503005501 | 10 | 276 | 0.0 | 3.2 | 0.00 | 0.00 | 0.00 | 51 | 1018.1 |
| 20260503005002 | 10 | 279 | 0.0 | 3.2 | 0.00 | 0.00 | 0.00 | 50 | 1018.0 |
| 20260503004502 | 10 | 277 | 0.0 | 3.2 | 0.00 | 0.00 | 0.00 | 50 | 1018.3 |
| 20260503004001 | 11 | 283 | 0.0 | 0.0 | 0.00 | 0.00 | 0.00 | 49 | 1018.3 |
| 20260503003502 | 11 | 248 | 3.2 | 4.8 | 0.00 | 0.00 | 0.00 | 47 | 1018.2 |
| 20260503003002 | 11 | 282 | 4.8 | 8.0 | 0.00 | 0.00 | 0.00 | 45 | 1018.1 |
| 20260503002502 | 11 | 277 | 3.2 | 9.7 | 0.00 | 0.00 | 0.00 | 45 | 1018.3 |
| 20260503002002 | 11 | 280 | 1.6 | 3.2 | 0.00 | 0.00 | 0.00 | 47 | 1018.2 |
| 20260503001502 | 11 | 286 | 4.8 | 6.4 | 0.00 | 0.00 | 0.00 | 45 | 1018.4 |
| 20260503001001 | 12 | 281 | 3.2 | 4.8 | 0.00 | 0.00 | 0.00 | 43 | 1018.2 |
| 20260503000502 | 12 | 317 | 4.8 | 11.3 | 0.00 | 0.00 | 0.00 | 42 | 1018.2 |
| 20260503000002 | 12 | 282 | 4.8 | 8.0 | 0.00 | 0.00 | 0.00 | 42 | 1018.2 |
| 20260502235502 | 13 | 340 | 6.4 | 11.3 | 0.00 | 0.00 | 0.00 | 41 | 1018.2 |
| 20260502235002 | 13 | 268 | 3.2 | 9.7 | 0.00 | 0.00 | 0.00 | 42 | 1018.1 |
| 20260502234502 | 13 | 311 | 6.4 | 8.0 | 0.00 | 0.00 | 0.00 | 41 | 1018.1 |
| 20260502234002 | 12 | 310 | 1.6 | 9.7 | 0.00 | 0.00 | 0.00 | 42 | 1018.3 |
| 20260502233501 | 12 | 260 | 4.8 | 9.7 | 0.00 | 0.00 | 0.00 | 43 | 1018.6 |
| 20260502233002 | 13 | 285 | 4.8 | 8.0 | 0.00 | 0.00 | 0.00 | 41 | 1018.6 |
| 20260502232502 | 12 | 295 | 4.8 | 9.7 | 0.00 | 0.00 | 0.00 | 43 | 1018.5 |
| 20260502232002 | 12 | 284 | 4.8 | 16.1 | 0.00 | 0.00 | 0.00 | 43 | 1018.2 |